CSDDJ KCLK-ZZZZ

Flight info

Callsign CSDDJ
Flight time N/A
Altitude 2500
Route FOLLOW I40 ROAD TO WESTBOUND
Aircraft C152/L-SDFY/C

Departure

Time 2026-04-17 23:00
Airport Clinton Regional Airport (KCLK)

Arrival

Time N/A
Airport ZZZZ
Time Latitude Longitude Altitude Speed Heading
2026-04-17 22:46 35.53784 -98.93578 1613 ft 0 kts 49°
2026-04-17 22:53 35.53766 -98.93543 1618 ft 10 kts 111°
2026-04-17 22:54 35.53762 -98.93443 1615 ft 15 kts 91°
2026-04-17 22:54 35.53765 -98.93311 1617 ft 8 kts 73°
2026-04-17 22:54 35.53817 -98.93294 1618 ft 12 kts 360°
2026-04-17 22:54 35.53939 -98.93296 1621 ft 22 kts 359°
2026-04-17 22:55 35.54106 -98.93298 1628 ft 24 kts 359°
2026-04-17 22:55 35.54255 -98.93301 1630 ft 13 kts
2026-04-17 22:55 35.54295 -98.93290 1630 ft 0 kts 61°
2026-04-17 22:57 35.54297 -98.93233 1630 ft 12 kts 107°
2026-04-17 22:57 35.54277 -98.93219 1630 ft 0 kts 180°
2026-04-17 22:57 35.54275 -98.93219 1630 ft 5 kts 178°
2026-04-17 22:57 35.54101 -98.93216 1630 ft 43 kts 179°
2026-04-17 22:58 35.53794 -98.93194 1749 ft 41 kts 177°
2026-04-17 22:58 35.53567 -98.93191 1875 ft 34 kts 178°
2026-04-17 22:58 35.53370 -98.93184 1980 ft 26 kts 177°
2026-04-17 22:58 35.53043 -98.93127 1864 ft 60 kts 176°
2026-04-17 22:59 35.52658 -98.93079 1992 ft 56 kts 173°
2026-04-17 22:59 35.52305 -98.93007 2073 ft 51 kts 177°
2026-04-17 22:59 35.51962 -98.92988 2165 ft 47 kts 180°
2026-04-17 22:59 35.51603 -98.92958 2168 ft 57 kts 178°
2026-04-17 23:00 35.51211 -98.92929 2260 ft 53 kts 188°
2026-04-17 23:00 35.50901 -98.93225 2377 ft 65 kts 227°
2026-04-17 23:00 35.50873 -98.93880 2513 ft 86 kts 252°
2026-04-17 23:00 35.50908 -98.94629 2578 ft 91 kts 256°
2026-04-17 23:01 35.50994 -98.95478 2508 ft 101 kts 256°
2026-04-17 23:01 35.51036 -98.96294 2576 ft 93 kts 250°
2026-04-17 23:01 35.51048 -98.97034 2690 ft 79 kts 245°
2026-04-17 23:01 35.51016 -98.97782 2610 ft 91 kts 244°
2026-04-17 23:02 35.50966 -98.98508 2753 ft 77 kts 239°
2026-04-17 23:02 35.50872 -98.99136 2815 ft 74 kts 233°
2026-04-17 23:02 35.50732 -98.99731 2894 ft 71 kts 227°
2026-04-17 23:02 35.50537 -99.00250 2983 ft 67 kts 222°
2026-04-17 23:03 35.50303 -99.00763 3016 ft 72 kts 223°
2026-04-17 23:03 35.50064 -99.01316 3041 ft 73 kts 226°
2026-04-17 23:03 35.49877 -99.01883 2986 ft 77 kts 226°
2026-04-17 23:03 35.49662 -99.02507 2988 ft 74 kts 228°
2026-04-17 23:04 35.49503 -99.03185 2889 ft 91 kts 239°
2026-04-17 23:04 35.49476 -99.03968 2902 ft 95 kts 249°
2026-04-17 23:04 35.49514 -99.04770 2931 ft 92 kts 254°
2026-04-17 23:04 35.49653 -99.05548 2950 ft 94 kts 257°
2026-04-17 23:05 35.49805 -99.06323 2955 ft 93 kts 257°
2026-04-17 23:05 35.49955 -99.07078 2977 ft 92 kts 258°
2026-04-17 23:05 35.50081 -99.07830 3004 ft 87 kts 252°
2026-04-17 23:05 35.50107 -99.08545 3030 ft 81 kts 243°
2026-04-17 23:06 35.50070 -99.09212 3069 ft 77 kts 240°
2026-04-17 23:06 35.49976 -99.09849 3149 ft 75 kts 237°
2026-04-17 23:06 35.49851 -99.10468 3225 ft 73 kts 233°
2026-04-17 23:06 35.49691 -99.11040 3323 ft 70 kts 229°
2026-04-17 23:07 35.49488 -99.11569 3405 ft 67 kts 224°
2026-04-17 23:07 35.49247 -99.12071 3451 ft 71 kts 222°
2026-04-17 23:07 35.49000 -99.12573 3550 ft 69 kts 223°
2026-04-17 23:07 35.48791 -99.13117 3605 ft 72 kts 226°
2026-04-17 23:08 35.48592 -99.13665 3644 ft 71 kts 226°
2026-04-17 23:08 35.48357 -99.14195 3680 ft 70 kts 224°
2026-04-17 23:08 35.48157 -99.14758 3673 ft 74 kts 229°
2026-04-17 23:08 35.47961 -99.15330 3783 ft 68 kts 224°
2026-04-17 23:09 35.47743 -99.15826 3885 ft 65 kts 219°
2026-04-17 23:09 35.47569 -99.16123 3941 ft 63 kts 216°
2026-04-17 23:09 35.47269 -99.16512 4004 ft 63 kts 211°
2026-04-17 23:09 35.46920 -99.16826 4097 ft 60 kts 205°
2026-04-17 23:10 35.46569 -99.17071 4171 ft 58 kts 200°
2026-04-17 23:10 35.46186 -99.17215 4237 ft 57 kts 187°
2026-04-17 23:10 35.45808 -99.17386 4281 ft 62 kts 207°
2026-04-17 23:10 35.45571 -99.17871 4320 ft 73 kts 232°
2026-04-17 23:11 35.45484 -99.18522 4335 ft 83 kts 246°
2026-04-17 23:11 35.45460 -99.19222 4358 ft 80 kts 243°
2026-04-17 23:11 35.45346 -99.19850 4407 ft 71 kts 232°
2026-04-17 23:11 35.45076 -99.20251 4317 ft 67 kts 186°
2026-04-17 23:12 35.44590 -99.20164 4217 ft 73 kts 177°
2026-04-17 23:12 35.44102 -99.20041 4174 ft 72 kts 175°
2026-04-17 23:12 35.43534 -99.19927 3844 ft 84 kts 179°
2026-04-17 23:12 35.42979 -99.19889 3709 ft 80 kts 184°
2026-04-17 23:13 35.42436 -99.19942 3599 ft 76 kts 187°
2026-04-17 23:13 35.41916 -99.20020 3475 ft 75 kts 187°
2026-04-17 23:13 35.41410 -99.20088 3376 ft 74 kts 184°
2026-04-17 23:13 35.40902 -99.20131 3301 ft 71 kts 179°
2026-04-17 23:14 35.40400 -99.20113 3181 ft 74 kts 178°
2026-04-17 23:14 35.39878 -99.20112 3069 ft 78 kts 181°
2026-04-17 23:14 35.39319 -99.20107 2953 ft 81 kts 183°
2026-04-17 23:14 35.38749 -99.20124 2821 ft 82 kts 182°
2026-04-17 23:15 35.38211 -99.20136 2632 ft 68 kts 180°
2026-04-17 23:15 35.37788 -99.20160 2489 ft 50 kts 176°
2026-04-17 23:15 35.37424 -99.20199 2382 ft 50 kts 171°
2026-04-17 23:15 35.37081 -99.20174 2301 ft 48 kts 168°
2026-04-17 23:16 35.36737 -99.20139 2212 ft 53 kts 172°
2026-04-17 23:16 35.36347 -99.20138 2091 ft 60 kts 176°
2026-04-17 23:16 35.35935 -99.20139 1991 ft 57 kts 178°
2026-04-17 23:16 35.35561 -99.20144 1936 ft 49 kts 177°
2026-04-17 23:17 35.35250 -99.20142 1923 ft 38 kts 177°
2026-04-17 23:17 35.35095 -99.20132 1919 ft 8 kts 156°
2026-04-17 23:17 35.35065 -99.20059 1919 ft 15 kts 91°
2026-04-17 23:17 35.35066 -99.19913 1919 ft 17 kts 90°
2026-04-17 23:18 35.35097 -99.19800 1919 ft 14 kts 19°
2026-04-17 23:18 35.35178 -99.19777 1919 ft 11 kts 19°
2026-04-17 23:18 35.35211 -99.19730 1919 ft 0 kts 10°